CAPE
18 18 12 5 15 16 0 2 0 0 18 0 0 0 0 3 4 10 0 0 0 0 0 0 0 0 0 1 1 0 0 0 0 0 0 0 0 0 0 0 0 0 0 0
7 6 3 15 16 20 0 0 1 0 1 0 0 0 0 1 0 0 0 0 6 0 0 0 0 0 4 0 0 0 0 0 0 0 0 0 0 0 0 0 0 0 0 0
2 4 4 2 8 20 0 0 0 0 5 0 0 1 0 0 0 0 0 0 6 0 0 1 0 0 0 4 0 4 3 0 0 0 0 0 0 0 0 0 0 0 0 0
0 0 2 30 52 41 13 0 0 0 0 0 0 0 0 0 0 0 0 0 0 0 0 0 0 1 0 0 3 1 0 0 0 0 0 0 0 0 0 0 1 0 0 0
20 30 34 53 34 23 1 3 2 0 0 0 0 0 0 0 0 0 0 0 0 0 0 0 0 0 0 0 0 0 2 0 0 0 0 0 0 0 0 0 0 1 0 0
3 5 11 30 43 18 2 0 0 0 0 0 0 0 0 0 0 0 0 0 0 0 0 0 0 0 0 0 0 0 1 0 0 0 0 0 0 0 0 0 0 0 0 0
6 24 7 18 32 35 5 0 1 0 0 0 0 0 0 0 0 0 0 3 0 0 0 0 0 0 0 0 0 0 0 1 1 0 0 0 0 0 0 0 0 0 0 0
11 1 0 16 34 42 28 1 1 0 0 0 0 0 0 3 0 0 0 0 0 0 0 0 0 0 0 0 0 0 0 4 0 0 0 0 0 0 0 0 0 0 0 0
2 11 7 17 17 21 11 3 0 0 0 0 0 0 0 0 0 0 0 0 0 0 0 0 0 0 0 0 1 0 1 10 0 0 0 0 0 0 0 0 0 0 0 0
2 11 12 22 1 0 0 2 5 1 1 0 0 0 0 0 0 0 0 0 0 0 0 0 0 0 0 0 0 0 2 0 0 0 0 0 0 0 0 0 0 0 0 0
8 18 10 6 12 3 0 3 9 3 0 0 0 0 0 0 0 0 0 0 0 0 2 0 0 0 0 0 0 0 0 0 0 0 0 0 0 0 0 0 0 0 0 0
0 0 2 10 17 0 0 0 0 9 2 0 0 0 0 0 0 1 0 0 0 1 0 0 0 0 0 0 0 0 0 0 0 0 0 0 0 0 0 0 0 0 0 0
0 0 0 1 8 5 0 1 0 0 0 0 0 0 0 0 0 0 0 0 0 0 0 0 0 1 0 0 0 0 0 0 0 0 0 0 0 0 0 0 0 0 0 0
0 0 0 2 0 13 0 0 0 0 0 0 0 0 0 0 0 0 0 0 2 1 0 0 2 0 0 0 0 0 0 0 0 0 0 0 0 0 0 0 0 0 0 1
0 0 0 0 0 3 0 0 2 1 0 0 0 0 0 0 0 0 0 0 0 0 1 0 0 0 0 0 0 0 0 0 0 0 0 0 0 0 0 0 0 0 0 1
0 0 0 0 0 0 1 0 0 1 4 3 0 0 0 0 0 0 0 0 0 0 0 0 0 0 0 0 0 0 0 0 0 0 0 0 0 0 0 0 1 0 0 0
0 0 0 0 0 0 0 0 0 7 8 4 0 0 0 0 0 0 0 0 0 0 0 0 0 0 0 0 0 0 0 0 0 0 0 0 0 1 1 0 0 0 0 0
1 0 0 0 0 0 0 0 0 10 4 7 1 0 0 0 0 0 0 0 0 0 0 0 0 0 0 0 0 0 0 0 0 0 0 0 0 1 0 1 0 0 0 0
0 0 0 0 0 0 0 0 0 0 3 0 0 0 0 0 0 0 0 0 0 0 0 0 0 0 0 0 0 0 0 0 0 0 0 0 1 1 0 0 0 1 0 0
0 0 0 0 0 0 0 0 0 0 0 1 0 0 0 0 0 0 0 0 0 0 0 0 0 0 0 0 0 0 0 0 0 0 0 0 1 0 0 1 0 0 0 0
0 0 0 0 0 0 0 0 0 0 0 0 0 0 0 0 0 0 0 0 0 0 0 0 0 0 0 0 0 0 0 0 0 0 0 0 0 0 0 1 0 1 1 0
0 4 3 0 0 0 0 0 0 0 0 0 0 0 0 0 0 0 0 0 0 0 0 0 0 0 0 0 0 0 0 0 0 0 0 1 0 1 0 0 2 2 0 1
0 1 1 0 0 0 0 0 0 0 0 0 0 0 0 0 0 0 0 0 0 0 0 0 0 0 0 0 0 0 0 0 0 0 0 0 0 0 0 2 1 3 1 0
0 0 0 0 0 0 0 0 0 0 0 0 0 0 0 0 0 0 0 0 0 0 0 0 0 0 0 0 0 0 0 0 0 0 0 0 1 0 0 1 1 3 0 0
0 0 0 0 0 0 0 0 0 0 0 0 0 0 0 0 0 0 0 0 0 0 0 0 0 1 0 0 0 0 0 0 0 0 0 0 0 0 2 0 0 1 0 0
0 0 0 0 0 0 0 0 0 0 0 0 0 0 0 0 0 1 0 0 0 0 0 0 0 0 0 0 0 0 0 0 0 0 0 0 0 0 1 3 0 2 2 0
2 0 0 0 0 0 0 0 0 0 0 0 0 0 0 0 0 0 0 0 0 0 0 1 1 1 1 0 0 0 0 0 0 0 0 0 0 0 0 0 0 0 1 1
CIN
-0 -1 -5 -7 -4 -5 -0 -3 -0 -0 -7 -0 -0 -0 -0 -2 -2 -5 -0 -0 -0 -0 -0 -0 -0 -0 -0 -0 -0 -0 -0 -0 -0 -0 -0 -0 -0 -0 -0 -0 -0 -0 -0 -0
-0 -0 -0 -0 -7 -2 -0 -0 -6 -0 -0 -0 -0 -0 -0 -1 -0 -0 -0 -1 -10 -0 -0 -0 -0 -0 -1 -0 -0 -0 -0 -0 -0 -0 -0 -0 -0 -0 -0 -0 -0 -0 -0 -0
-0 -0 -0 -0 -1 -3 -1 -0 -0 -0 -0 -2 -0 -0 -0 -0 -0 -0 -0 -0 -8 -0 -0 -1 -0 -0 -0 -1 -0 -1 -1 -0 -0 -0 -0 -0 -0 -0 -0 -0 -0 -0 -0 -0
-0 -0 -0 -0 -1 -1 -1 -0 -0 -0 -0 -0 -1 -0 -0 -0 -0 -0 -0 -0 -0 -0 -0 -0 -0 -0 -0 -0 -3 -0 -0 -0 -0 -0 -0 -0 -0 -0 -0 -0 -6 -0 -0 -0
-0 -0 -2 -0 -5 -2 -0 -0 -7 -0 -0 -0 -0 -0 -0 -0 -0 -0 -0 -0 -0 -0 -0 -0 -0 -0 -0 -0 -0 -0 -6 -0 -0 -0 -0 -0 -0 -0 -0 -0 -0 -0 -0 -0
-0 -0 -0 -0 -2 -3 -0 -0 -0 -0 -0 -0 -1 -0 -0 -0 -0 -0 -0 -0 -1 -0 -0 -0 -0 -0 -0 -0 -0 -0 -0 -0 -0 -0 -0 -0 -0 -0 -0 -0 -0 -0 -0 -0
-0 -0 -0 -0 -0 -2 -1 -0 -0 -0 -0 -0 -0 -0 -0 -0 -0 -0 -0 -3 -0 -0 -0 -0 -0 -0 -0 -0 -0 -0 -0 -0 -1 -1 -0 -0 -0 -0 -0 -0 -0 -0 -0 -0
-0 -0 -0 -0 -0 -1 -1 -1 -0 -0 -0 -0 -0 -0 -0 -13 -0 -0 -0 -0 -0 -0 -0 -0 -0 -0 -0 -0 -0 -0 -0 -1 -2 -0 -1 -0 -0 -0 -0 -0 -0 -0 -0 -0
-0 -0 -0 -0 -0 -1 -0 -0 -0 -0 -0 -0 -0 -0 -0 -0 -0 -0 -0 -0 -0 -0 -0 -0 -0 -0 -0 -0 -9 -0 -0 -1 -1 -0 -0 -0 -0 -0 -0 -0 -0 -0 -0 -0
-0 -0 -1 -1 -8 -0 -0 -1 -5 -0 -5 -0 -0 -0 -0 -0 -0 -0 -0 -0 -0 -1 -0 -0 -0 -0 -0 -0 -0 -4 -11 -0 -0 -0 -3 -0 -0 -0 -0 -0 -0 -0 -0 -0
-0 -0 -4 -9 -3 -3 -0 -1 -3 -2 -0 -0 -0 -0 -0 -0 -0 -0 -0 -0 -0 -0 -0 -1 -0 -0 -0 -0 -0 -0 -4 -0 -0 -0 -0 -0 -0 -0 -0 -0 -0 -0 -0 -0
-0 -0 -4 -0 -0 -0 -0 -0 -1 -0 -0 -0 -0 -0 -0 -0 -4 -5 -0 -8 -0 -2 -0 -0 -0 -0 -0 -0 -0 -0 -0 -0 -0 -0 -0 -0 -0 -0 -0 -0 -0 -0 -0 -0
-0 -0 -0 -0 -0 -0 -0 -2 -0 -0 -0 -0 -0 -0 -0 -0 -0 -0 -1 -0 -0 -0 -0 -0 -0 -2 -0 -0 -0 -0 -0 -0 -0 -0 -0 -0 -0 -0 -0 -0 -0 -0 -0 -0
-0 -0 -0 -0 -0 -0 -1 -0 -3 -1 -0 -0 -0 -0 -0 -0 -0 -0 -0 -0 -1 -2 -0 -0 -3 -0 -0 -0 -0 -0 -0 -0 -0 -0 -0 -0 -0 -0 -0 -0 -0 -0 -0 -0
-0 -0 -0 -0 -0 -1 -0 -0 -14 -13 -1 -0 -0 -0 -0 -0 -0 -0 -0 -0 -0 -0 -0 -0 -0 -0 -0 -0 -0 -0 -0 -0 -0 -0 -0 -0 -0 -0 -0 -0 -0 -0 -0 -0
-0 -0 -0 -0 -0 -0 -8 -0 -8 -16 -4 -2 -0 -0 -0 -0 -0 -0 -0 -0 -0 -0 -0 -0 -0 -0 -0 -0 -0 -0 -0 -0 -0 -0 -0 -0 -0 -0 -0 -0 -1 -0 -1 -1
-0 -0 -0 -0 -0 -0 -0 -0 -0 -20 -10 -1 -3 -0 -0 -0 -0 -0 -0 -0 -0 -0 -0 -0 -0 -0 -0 -0 -0 -0 -0 -0 -0 -0 -0 -0 -0 -0 -0 -0 -15 -0 -0 -0
-0 -0 -0 -0 -0 -0 -0 -0 -0 -21 -10 -1 -4 -0 -0 -0 -0 -0 -0 -0 -0 -0 -0 -0 -0 -0 -0 -0 -0 -0 -0 -0 -0 -0 -0 -0 -1 -0 -0 -0 -0 -0 -0 -0
-0 -0 -0 -0 -0 -0 -0 -0 -2 -8 -7 -0 -0 -0 -0 -0 -0 -0 -0 -0 -0 -0 -0 -0 -0 -0 -0 -0 -0 -0 -0 -0 -0 -0 -0 -0 -0 -1 -0 -0 -0 -0 -0 -0
-0 -0 -0 -0 -0 -0 -0 -0 -0 -0 -0 -8 -0 -0 -0 -0 -0 -0 -0 -0 -0 -0 -0 -0 -0 -0 -0 -0 -0 -0 -0 -0 -0 -0 -0 -0 -0 -3 -0 -0 -0 -0 -0 -0
-0 -0 -0 -0 -0 -0 -0 -0 -0 -0 -0 -0 -0 -0 -0 -0 -0 -0 -0 -0 -0 -0 -0 -0 -0 -0 -0 -0 -0 -0 -0 -0 -0 -0 -3 -0 -3 -0 -0 -0 -0 -0 -0 -0
-0 -0 -7 -6 -0 -0 -0 -0 -0 -0 -0 -0 -0 -0 -0 -0 -0 -0 -0 -0 -0 -0 -0 -0 -0 -0 -0 -0 -0 -0 -0 -0 -0 -0 -1 -1 -0 -3 -3 -0 -0 -0 -0 -0
-2 -1 -2 -0 -0 -0 -0 -0 -0 -0 -0 -0 -0 -0 -0 -0 -0 -0 -0 -0 -0 -0 -0 -0 -0 -0 -0 -0 -0 -0 -0 -0 -0 -0 -0 -2 -3 -0 -0 -0 -0 -0 -0 -0
-0 -0 -0 -0 -0 -0 -0 -0 -0 -0 -0 -0 -0 -0 -0 -0 -0 -0 -0 -0 -0 -0 -0 -0 -0 -0 -0 -0 -0 -0 -0 -0 -0 -0 -0 -0 -5 -2 -7 -0 -0 -0 -0 -0
-0 -0 -0 -0 -0 -0 -0 -0 -0 -0 -0 -0 -0 -0 -0 -0 -0 -0 -0 -0 -0 -0 -0 -0 -0 -0 -0 -0 -0 -0 -0 -0 -0 -0 -0 -0 -0 -0 -6 -9 -0 -0 -0 -0
-0 -0 -0 -0 -0 -0 -0 -0 -0 -0 -0 -0 -0 -0 -0 -0 -0 -2 -0 -0 -0 -0 -0 -0 -0 -0 -0 -0 -0 -0 -0 -0 -0 -0 -0 -0 -0 -0 -0 -7 -0 -0 -0 -0
-0 -0 -0 -0 -0 -0 -0 -0 -0 -0 -0 -0 -0 -0 -0 -0 -0 -0 -0 -0 -0 -0 -0 -0 -0 -0 -0 -0 -0 -0 -0 -0 -0 -0 -0 -0 -1 -0 -0 -0 -2 -0 -0 -0
Wind_Speed
27 28 29 25 23 20 19 23 28 19 13 23 24 29 27 26 28 23 26 28 31 31 28 30 29 30 28 28 26 30 26 27 33 30 25 21 27 29 28 32 33 27 28 29
27 27 27 26 25 15 17 22 23 19 18 31 29 28 28 27 29 28 25 26 24 23 27 28 26 22 22 21 23 25 28 33 38 34 29 26 30 30 29 32 31 33 35 34
25 24 24 23 23 20 13 20 26 21 18 21 27 30 31 29 25 27 26 24 22 25 26 22 26 28 23 24 24 22 24 26 32 38 33 28 34 32 30 31 35 33 35 38
21 22 23 23 21 20 14 19 24 23 25 24 23 23 26 28 26 22 18 21 21 25 26 28 28 25 29 27 22 22 24 29 30 32 30 31 33 38 37 38 37 37 39 42
23 21 20 20 19 16 16 22 22 21 26 24 24 23 25 25 25 24 26 26 23 24 26 26 30 29 29 29 27 25 26 31 31 36 33 34 40 39 41 42 43 44 47 51
20 18 18 16 13 11 14 16 17 19 25 24 25 27 25 26 25 24 22 22 25 26 27 27 28 29 29 30 31 31 30 29 33 39 33 35 44 41 40 40 39 42 50 48
16 14 13 12 11 9 8 11 13 15 22 19 23 25 24 25 27 31 30 24 24 22 24 29 30 30 31 31 31 27 27 27 28 34 32 43 34 30 31 35 37 36 40 40
20 18 14 11 9 7 7 8 4 11 10 5 11 21 26 27 27 29 25 27 29 29 28 27 29 28 29 30 28 25 22 23 28 31 32 36 38 31 30 31 37 31 33 33
27 21 19 8 11 8 5 5 6 7 18 13 16 15 21 24 25 25 29 30 27 20 21 22 27 28 25 25 22 21 18 19 23 24 30 34 27 22 21 23 37 26 25 26
29 27 18 25 29 28 16 13 12 10 10 15 12 13 17 16 17 19 22 22 19 12 16 21 24 26 22 25 25 21 17 17 22 25 29 30 25 24 22 31 33 22 25 28
28 27 16 13 12 9 13 11 11 11 11 8 8 8 1 17 15 17 19 21 16 15 18 20 21 22 20 21 19 18 18 16 19 20 25 32 21 19 23 23 25 29 30 30
26 19 2 2 3 8 14 14 13 11 12 10 10 12 15 18 7 21 22 20 21 20 20 19 15 17 16 17 20 15 19 16 19 17 19 19 17 18 20 23 25 27 32 35
26 21 6 2 5 18 21 16 16 15 12 6 8 9 10 11 16 19 23 22 21 19 19 19 16 15 14 16 18 15 15 14 17 17 18 18 18 16 18 26 31 35 37 40
13 26 2 11 10 6 20 18 16 15 14 14 12 11 8 13 13 17 22 21 19 19 21 19 17 15 14 14 16 15 15 13 18 21 21 19 16 20 28 33 33 39 41 43
9 7 22 7 14 22 20 17 16 15 16 13 9 6 14 11 14 14 21 18 19 23 20 18 18 17 17 18 18 17 14 16 19 25 19 21 24 30 34 34 38 39 40 42
5 4 3 0 12 15 15 14 13 14 13 13 13 15 13 12 17 14 13 11 13 16 19 20 19 18 19 20 19 18 16 14 16 20 21 25 28 30 29 34 36 37 39 40
5 3 2 6 13 13 12 13 15 14 14 14 12 15 20 19 16 16 15 14 14 15 19 19 19 18 17 20 22 20 18 17 17 20 23 24 26 31 34 32 34 34 35 35
5 3 2 8 12 12 11 15 17 16 13 13 12 10 19 19 18 14 15 13 11 12 16 17 17 19 18 22 21 18 15 13 17 18 22 24 28 29 31 29 30 32 33 34
5 6 11 11 12 12 9 6 13 14 13 12 12 11 11 20 19 18 17 16 19 15 14 14 16 17 13 15 18 17 14 15 15 19 22 24 25 28 30 30 25 21 25 34
11 15 15 15 13 5 8 12 13 13 13 13 14 13 11 18 19 19 20 18 18 16 16 16 16 10 10 12 11 17 15 14 17 20 19 25 26 27 31 29 24 16 16 31
20 19 16 11 8 12 14 14 14 14 14 14 14 14 12 12 11 18 19 20 20 19 19 18 17 12 15 10 16 18 14 15 17 19 21 23 25 24 20 19 18 17 17 19
16 13 12 13 16 16 16 15 14 14 15 14 13 12 11 11 12 11 14 16 19 14 21 19 13 12 4 15 18 18 15 16 18 20 23 24 25 23 22 20 18 18 17 17
17 17 16 17 16 16 16 16 15 15 14 13 12 11 11 10 11 10 11 11 9 21 15 9 15 22 19 10 17 17 17 18 20 21 22 24 25 23 21 22 20 20 19 19
17 16 15 15 15 13 13 13 13 13 12 11 10 10 10 10 10 11 10 10 10 9 10 10 21 24 23 13 14 18 18 19 20 20 22 23 23 23 20 21 23 22 21 18
13 13 13 12 11 12 12 11 12 11 11 10 10 10 10 10 10 11 11 10 9 9 9 11 25 27 24 18 18 20 21 21 21 23 23 23 25 26 21 20 23 23 22 22
11 9 10 12 13 9 9 9 9 10 11 12 12 12 12 10 11 10 9 10 8 8 8 18 27 27 24 21 20 21 21 22 22 21 21 23 24 24 24 21 22 23 22 22
9 8 6 8 12 9 7 7 9 11 11 11 12 12 10 11 11 10 9 7 7 6 6 16 26 29 29 26 23 23 23 22 21 20 20 21 22 23 23 22 23 22 21 20
Wind_Direction
342 340 338 337 336 341 339 325 306 327 333 303 298 289 293 294 290 292 291 289 283 284 292 283 282 282 284 294 285 283 287 283 277 281 284 292 287 280 277 277 273 277 279 277
346 344 340 337 335 341 336 325 320 323 315 294 293 297 295 295 288 287 290 289 289 290 285 286 285 291 297 302 300 292 288 277 274 277 286 289 281 276 280 276 276 272 272 272
356 354 351 347 340 339 333 324 315 320 317 308 298 293 291 292 296 290 287 286 290 289 284 287 284 286 293 300 302 299 296 285 281 276 280 285 277 281 278 275 274 274 276 275
9 3 357 352 347 345 339 324 314 314 306 308 304 302 297 289 293 300 298 289 287 290 286 286 285 288 290 293 295 296 297 285 287 286 285 283 282 276 277 274 277 279 280 278
13 14 12 6 357 354 340 321 319 320 306 306 305 299 298 293 297 288 288 287 293 295 287 287 286 289 287 284 290 294 294 284 289 285 288 284 280 280 280 278 279 279 279 277
21 22 21 25 25 14 350 339 327 316 310 306 298 294 295 293 297 293 293 298 294 290 291 292 291 289 288 284 285 286 287 287 287 283 289 288 281 282 282 282 283 282 277 284
27 29 34 30 27 26 7 352 339 327 313 308 300 296 292 292 290 288 288 291 289 298 304 297 292 289 287 286 283 281 285 287 290 286 290 280 290 295 293 288 288 288 286 287
29 32 31 23 17 25 21 9 351 334 319 282 326 308 294 286 292 288 293 289 286 294 296 296 292 292 292 289 284 278 274 282 287 285 285 289 290 295 293 292 290 298 293 293
25 41 37 19 38 53 100 118 116 28 341 335 314 319 300 288 291 293 292 293 291 295 292 294 288 287 293 292 297 300 276 276 281 288 287 286 298 308 312 308 291 306 304 302
22 31 47 41 32 30 56 59 76 69 42 4 11 348 315 296 300 303 308 308 304 306 300 292 287 285 295 290 290 290 290 278 276 286 288 293 302 306 311 295 298 313 311 308
18 18 49 57 67 74 70 82 105 103 86 121 112 118 343 286 306 317 323 307 308 307 302 298 293 291 293 292 294 295 292 291 291 293 293 293 315 314 302 311 315 313 313 313
23 39 304 13 80 70 70 80 90 135 126 138 144 179 188 187 136 255 240 239 255 267 322 314 313 301 305 297 288 294 294 298 304 302 310 319 332 320 329 326 320 320 315 314
16 29 275 217 270 50 49 69 79 96 102 134 126 138 164 159 187 190 217 223 245 253 295 313 321 311 318 302 301 308 303 310 310 316 323 329 335 341 338 326 319 314 312 310
36 335 291 44 56 360 38 51 74 80 78 79 95 116 184 192 161 171 188 204 275 256 298 316 334 332 338 319 315 313 316 328 314 313 320 331 338 339 326 319 321 315 313 312
29 31 293 52 34 11 28 46 63 65 60 67 98 175 100 109 116 131 192 177 207 267 269 297 321 329 324 317 317 316 326 323 320 312 332 326 325 323 320 321 320 320 317 311
4 7 295 238 42 37 50 63 72 66 78 71 68 53 72 246 27 350 341 359 334 319 297 301 310 321 319 322 325 331 335 345 339 328 329 323 322 324 329 324 320 320 316 311
342 329 314 69 39 48 72 65 45 53 54 50 57 37 346 333 12 32 335 338 335 336 316 318 323 341 341 325 318 326 327 336 339 336 332 332 331 324 323 330 327 326 322 321
341 324 91 86 68 65 83 41 26 31 49 50 56 61 320 326 330 358 6 65 37 15 347 344 346 345 340 326 324 329 343 353 344 349 341 337 317 320 329 346 345 338 332 325
357 59 81 87 93 91 99 75 46 51 69 77 74 86 115 304 322 329 335 347 310 6 11 11 4 359 5 353 331 316 327 330 5 344 310 314 309 324 341 350 5 9 356 325
52 61 65 69 86 107 98 100 99 99 95 92 85 94 116 306 308 317 321 331 340 2 6 13 13 39 30 20 11 284 285 320 322 299 288 326 329 321 346 2 15 21 16 312
44 46 57 73 88 81 83 84 87 90 89 94 93 95 99 64 104 327 325 324 333 343 357 0 10 60 46 93 184 218 265 289 297 316 11 9 1 16 29 29 29 28 27 307
38 49 62 67 65 73 76 80 86 90 84 95 91 90 99 105 71 93 7 352 327 19 342 345 45 73 227 223 219 230 271 297 314 334 338 352 1 20 26 32 34 35 37 318
40 46 53 55 63 66 69 67 76 80 91 92 89 82 90 100 99 105 101 106 115 333 12 52 359 297 283 100 267 273 298 314 316 323 347 350 359 17 27 29 36 39 45 49
34 39 46 57 57 65 69 73 79 86 89 86 84 84 90 97 99 107 106 108 95 107 113 102 314 305 295 12 330 307 318 327 333 341 339 344 0 12 28 30 31 37 45 57
35 40 45 48 53 55 62 73 76 82 81 78 73 78 92 97 97 104 100 98 103 106 106 32 307 307 318 333 319 307 308 316 320 322 329 337 338 341 12 27 28 32 39 48
30 40 38 32 33 48 55 63 62 72 71 69 71 74 71 81 91 93 97 87 91 87 84 353 315 316 325 328 323 319 318 316 317 324 328 326 330 335 342 5 10 21 32 32
29 27 27 18 17 31 53 57 52 65 65 62 64 63 73 75 74 74 90 86 82 78 55 2 331 321 318 318 318 318 318 318 317 321 325 329 328 329 332 341 344 356 9 21